Location: Unspecified
(48.8656°N, 0.0000°E)
Time: 14:44:13
(UTC+00:00)

SR - Pass Details

Date: 25 June 2019
Orbit: 580 x 875 km, 66.7° (Epoch: 16 July)

Event Time Altitude Azimuth Distance (km) Brightness Sun altitude
Rises 02:21:39 0° 184° (S) 2,789 - -11.3°
Exits shadow 02:23:56 - 174° (S) 1,941 ? -11.1°
Reaches altitude 10° 02:24:05 10° 173° (S) 1,891 ? -11.1°
Maximum altitude 02:27:42 28° 114° (ESE) 1,102 ? -10.8°
Drops below altitude 10° 02:31:25 10° 54° (NE) 1,943 ? -10.5°
Sets 02:33:55 0° 43° (NE) 2,881 ? -10.2°
